Year,Month,Day,Hour,Minute,Value (Times are PST for temperature in C)
2009,09,25,00,00,10.10
2009,09,25,00,01,10.10
2009,09,25,00,02,10.10
2009,09,25,00,03,10.10
2009,09,25,00,04,10.10
2009,09,25,00,05,10.10
2009,09,25,00,06,10.10
2009,09,25,00,07,10.10
2009,09,25,00,08,10.10
2009,09,25,00,09,10.10
2009,09,25,00,10,10.00
2009,09,25,00,11,10.00
2009,09,25,00,12,10.00
2009,09,25,00,13,10.00
2009,09,25,00,14,10.00
2009,09,25,00,15,10.00
2009,09,25,00,16,10.00
2009,09,25,00,17,10.00
2009,09,25,00,18,10.00
2009,09,25,00,19,10.00
2009,09,25,00,20,10.00
2009,09,25,00,21,10.00
2009,09,25,00,22,10.00
2009,09,25,00,23,10.00
2009,09,25,00,24,10.00
2009,09,25,00,25,10.00
2009,09,25,00,26,10.00
2009,09,25,00,27,10.00
2009,09,25,00,28,10.00
2009,09,25,00,29,10.00
2009,09,25,00,30,10.00
2009,09,25,00,31,10.00
2009,09,25,00,32,10.00
2009,09,25,00,33,10.00
2009,09,25,00,34,10.00
2009,09,25,00,35,10.00
2009,09,25,00,36,10.00
2009,09,25,00,37,10.00
2009,09,25,00,38,10.10
2009,09,25,00,39,10.10
2009,09,25,00,40,10.20
2009,09,25,00,41,10.20
2009,09,25,00,42,10.20
2009,09,25,00,43,10.30
2009,09,25,00,44,10.30
2009,09,25,00,45,10.30
2009,09,25,00,46,10.30
2009,09,25,00,47,10.40
2009,09,25,00,48,10.40
2009,09,25,00,49,10.40
2009,09,25,00,50,10.50
2009,09,25,00,51,10.50
2009,09,25,00,52,10.60
2009,09,25,00,53,10.60
2009,09,25,00,54,10.60
2009,09,25,00,55,10.70
2009,09,25,00,56,10.70
2009,09,25,00,57,10.80
2009,09,25,00,58,10.80
2009,09,25,00,59,10.80
2009,09,25,01,00,10.80
2009,09,25,01,01,10.90
2009,09,25,01,02,10.90
2009,09,25,01,03,10.90
2009,09,25,01,04,11.00
2009,09,25,01,05,11.00
2009,09,25,01,06,11.10
2009,09,25,01,07,11.10
2009,09,25,01,08,11.10
2009,09,25,01,09,11.20
2009,09,25,01,10,11.20
2009,09,25,01,11,11.20
2009,09,25,01,12,11.20
2009,09,25,01,13,11.20
2009,09,25,01,14,11.30
2009,09,25,01,15,11.30
2009,09,25,01,16,11.30
2009,09,25,01,17,11.30
2009,09,25,01,18,11.30
2009,09,25,01,19,11.30
2009,09,25,01,20,11.30
2009,09,25,01,21,11.30
2009,09,25,01,22,11.30
2009,09,25,01,23,11.30
2009,09,25,01,24,11.30
2009,09,25,01,25,11.30
2009,09,25,01,26,11.30
2009,09,25,01,27,11.30
2009,09,25,01,28,11.30
2009,09,25,01,29,11.30
2009,09,25,01,30,11.30
2009,09,25,01,31,11.30
2009,09,25,01,32,11.30
2009,09,25,01,33,11.20
2009,09,25,01,34,11.20
2009,09,25,01,35,11.10
2009,09,25,01,36,11.10
2009,09,25,01,37,11.10
2009,09,25,01,38,11.00
2009,09,25,01,39,11.00
2009,09,25,01,40,10.90
2009,09,25,01,41,10.80
2009,09,25,01,42,10.80
2009,09,25,01,43,10.80
2009,09,25,01,44,10.80
2009,09,25,01,45,10.70
2009,09,25,01,46,10.70
2009,09,25,01,47,10.70
2009,09,25,01,48,10.70
2009,09,25,01,49,10.60
2009,09,25,01,50,10.60
2009,09,25,01,51,10.50
2009,09,25,01,52,10.50
2009,09,25,01,53,10.50
2009,09,25,01,54,10.50
2009,09,25,01,55,10.40
2009,09,25,01,56,10.40
2009,09,25,01,57,10.40
2009,09,25,01,58,10.40
2009,09,25,01,59,10.40
2009,09,25,02,00,10.40
2009,09,25,02,01,10.40
2009,09,25,02,02,10.40
2009,09,25,02,03,10.50
2009,09,25,02,04,10.50
2009,09,25,02,05,10.60
2009,09,25,02,06,10.60
2009,09,25,02,07,10.70
2009,09,25,02,08,10.70
2009,09,25,02,09,10.70
2009,09,25,02,10,10.70
2009,09,25,02,11,10.80
2009,09,25,02,12,10.80
2009,09,25,02,13,10.80
2009,09,25,02,14,10.80
2009,09,25,02,15,10.80
2009,09,25,02,16,10.90
2009,09,25,02,17,10.90
2009,09,25,02,18,10.90
2009,09,25,02,19,10.90
2009,09,25,02,20,10.90
2009,09,25,02,21,10.90
2009,09,25,02,22,10.90
2009,09,25,02,23,11.00
2009,09,25,02,24,11.00
2009,09,25,02,25,11.00
2009,09,25,02,26,11.00
2009,09,25,02,27,11.00
2009,09,25,02,28,11.00
2009,09,25,02,29,10.90
2009,09,25,02,30,10.90
2009,09,25,02,31,10.90
2009,09,25,02,32,10.90
2009,09,25,02,33,10.90
2009,09,25,02,34,10.80
2009,09,25,02,35,10.80
2009,09,25,02,36,10.80
2009,09,25,02,37,10.70
2009,09,25,02,38,10.70
2009,09,25,02,39,10.70
2009,09,25,02,40,10.70
2009,09,25,02,41,10.70
2009,09,25,02,42,10.60
2009,09,25,02,43,10.60
2009,09,25,02,44,10.60
2009,09,25,02,45,10.50
2009,09,25,02,46,10.50
2009,09,25,02,47,10.40
2009,09,25,02,48,10.40
2009,09,25,02,49,10.40
2009,09,25,02,50,10.30
2009,09,25,02,51,10.30
2009,09,25,02,52,10.30
2009,09,25,02,53,10.30
2009,09,25,02,54,10.30
2009,09,25,02,55,10.30
2009,09,25,02,56,10.30
2009,09,25,02,57,10.30
2009,09,25,02,58,10.30
2009,09,25,02,59,10.30
2009,09,25,03,00,10.30
2009,09,25,03,01,10.20
2009,09,25,03,02,10.20
2009,09,25,03,03,10.20
2009,09,25,03,04,10.20
2009,09,25,03,05,10.20
2009,09,25,03,06,10.10
2009,09,25,03,07,10.10
2009,09,25,03,08,10.10
2009,09,25,03,09,10.10
2009,09,25,03,10,10.10
2009,09,25,03,11,10.10
2009,09,25,03,12,10.00
2009,09,25,03,13,10.00
2009,09,25,03,14,10.00
2009,09,25,03,15,9.90
2009,09,25,03,16,9.90
2009,09,25,03,17,9.90
2009,09,25,03,18,9.90
2009,09,25,03,19,9.80
2009,09,25,03,20,9.80
2009,09,25,03,21,9.80
2009,09,25,03,22,9.80
2009,09,25,03,23,9.80
2009,09,25,03,24,9.70
2009,09,25,03,25,9.70
2009,09,25,03,26,9.70
2009,09,25,03,27,9.70
2009,09,25,03,28,9.70
2009,09,25,03,29,9.70
2009,09,25,03,30,9.70
2009,09,25,03,31,9.60
2009,09,25,03,32,9.60
2009,09,25,03,33,9.60
2009,09,25,03,34,9.60
2009,09,25,03,35,9.60
2009,09,25,03,36,9.60
2009,09,25,03,37,9.60
2009,09,25,03,38,9.60
2009,09,25,03,39,9.60
2009,09,25,03,40,9.60
2009,09,25,03,41,9.60
2009,09,25,03,42,9.60
2009,09,25,03,43,9.60
2009,09,25,03,44,9.60
2009,09,25,03,45,9.60
2009,09,25,03,46,9.60
2009,09,25,03,47,9.60
2009,09,25,03,48,9.70
2009,09,25,03,49,9.70
2009,09,25,03,50,9.70
2009,09,25,03,51,9.70
2009,09,25,03,52,9.70
2009,09,25,03,53,9.70
2009,09,25,03,54,9.70
2009,09,25,03,55,9.70
2009,09,25,03,56,9.70
2009,09,25,03,57,9.80
2009,09,25,03,58,9.80
2009,09,25,03,59,9.80
2009,09,25,04,00,9.80
2009,09,25,04,01,9.80
2009,09,25,04,02,9.80
2009,09,25,04,03,9.80
2009,09,25,04,04,9.80
2009,09,25,04,05,9.70
2009,09,25,04,06,9.80
2009,09,25,04,07,9.70
2009,09,25,04,08,9.80
2009,09,25,04,09,9.80
2009,09,25,04,10,9.80
2009,09,25,04,11,9.80
2009,09,25,04,12,9.80
2009,09,25,04,13,9.80
2009,09,25,04,14,9.80
2009,09,25,04,15,9.80
2009,09,25,04,16,9.80
2009,09,25,04,17,9.80
2009,09,25,04,18,9.80
2009,09,25,04,19,9.80
2009,09,25,04,20,9.80
2009,09,25,04,21,9.80
2009,09,25,04,22,9.80
2009,09,25,04,23,9.80
2009,09,25,04,24,9.80
2009,09,25,04,25,9.80
2009,09,25,04,26,9.80
2009,09,25,04,27,9.80
2009,09,25,04,28,9.80
2009,09,25,04,29,9.80
2009,09,25,04,30,9.90
2009,09,25,04,31,9.90
2009,09,25,04,32,9.90
2009,09,25,04,33,9.90
2009,09,25,04,34,9.90
2009,09,25,04,35,9.90
2009,09,25,04,36,9.90
2009,09,25,04,37,9.90
2009,09,25,04,38,9.80
2009,09,25,04,39,9.80
2009,09,25,04,40,9.80
2009,09,25,04,41,9.80
2009,09,25,04,42,9.80
2009,09,25,04,43,9.80
2009,09,25,04,44,9.70
2009,09,25,04,45,9.70
2009,09,25,04,46,9.70
2009,09,25,04,47,9.70
2009,09,25,04,48,9.70
2009,09,25,04,49,9.60
2009,09,25,04,50,9.60
2009,09,25,04,51,9.60
2009,09,25,04,52,9.60
2009,09,25,04,53,9.60
2009,09,25,04,54,9.60
2009,09,25,04,55,9.60
2009,09,25,04,56,9.60
2009,09,25,04,57,9.60
2009,09,25,04,58,9.60
2009,09,25,04,59,9.60
2009,09,25,05,00,9.60
2009,09,25,05,01,9.60
2009,09,25,05,02,9.60
2009,09,25,05,03,9.50
2009,09,25,05,04,9.50
2009,09,25,05,05,9.50
2009,09,25,05,06,9.50
2009,09,25,05,07,9.50
2009,09,25,05,08,9.50
2009,09,25,05,09,9.50
2009,09,25,05,10,9.50
2009,09,25,05,11,9.50
2009,09,25,05,12,9.50
2009,09,25,05,13,9.50
2009,09,25,05,14,9.50
2009,09,25,05,15,9.50
2009,09,25,05,16,9.50
2009,09,25,05,17,9.50
2009,09,25,05,18,9.40
2009,09,25,05,19,9.50
2009,09,25,05,20,9.50
2009,09,25,05,21,9.50
2009,09,25,05,22,9.50
2009,09,25,05,23,9.50
2009,09,25,05,24,9.50
2009,09,25,05,25,9.50
2009,09,25,05,26,9.50
2009,09,25,05,27,9.50
2009,09,25,05,28,9.50
2009,09,25,05,29,9.50
2009,09,25,05,30,9.50
2009,09,25,05,31,9.50
2009,09,25,05,32,9.50
2009,09,25,05,33,9.40
2009,09,25,05,34,9.40
2009,09,25,05,35,9.40
2009,09,25,05,36,9.40
2009,09,25,05,37,9.40
2009,09,25,05,38,9.40
2009,09,25,05,39,9.40
2009,09,25,05,40,9.40
2009,09,25,05,41,9.40
2009,09,25,05,42,9.40
2009,09,25,05,43,9.40
2009,09,25,05,44,9.40
2009,09,25,05,45,9.40
2009,09,25,05,46,9.40
2009,09,25,05,47,9.40
2009,09,25,05,48,9.50
2009,09,25,05,49,9.50
2009,09,25,05,50,9.60
2009,09,25,05,51,9.60
2009,09,25,05,52,9.60
2009,09,25,05,53,9.70
2009,09,25,05,54,9.70
2009,09,25,05,55,9.70
2009,09,25,05,56,9.70
2009,09,25,05,57,9.70
2009,09,25,05,58,9.80
2009,09,25,05,59,9.80
2009,09,25,06,00,9.80
2009,09,25,06,01,9.80
2009,09,25,06,02,9.80
2009,09,25,06,03,9.80
2009,09,25,06,04,9.80
2009,09,25,06,05,9.80
2009,09,25,06,06,9.80
2009,09,25,06,07,9.70
2009,09,25,06,08,9.70
2009,09,25,06,09,9.70
2009,09,25,06,10,9.70
2009,09,25,06,11,9.70
2009,09,25,06,12,9.70
2009,09,25,06,13,9.70
2009,09,25,06,14,9.70
2009,09,25,06,15,9.70
2009,09,25,06,16,9.60
2009,09,25,06,17,9.60
2009,09,25,06,18,9.60
2009,09,25,06,19,9.60
2009,09,25,06,20,9.50
2009,09,25,06,21,9.50
2009,09,25,06,22,9.50
2009,09,25,06,23,9.40
2009,09,25,06,24,9.40
2009,09,25,06,25,9.40
2009,09,25,06,26,9.40
2009,09,25,06,27,9.40
2009,09,25,06,28,9.30
2009,09,25,06,29,9.30
2009,09,25,06,30,9.30
2009,09,25,06,31,9.30
2009,09,25,06,32,9.30
2009,09,25,06,33,9.30
2009,09,25,06,34,9.30
2009,09,25,06,35,9.30
2009,09,25,06,36,9.30
2009,09,25,06,37,9.30
2009,09,25,06,38,9.30
2009,09,25,06,39,9.30
2009,09,25,06,40,9.30
2009,09,25,06,41,9.30
2009,09,25,06,42,9.20
2009,09,25,06,43,9.20
2009,09,25,06,44,9.20
2009,09,25,06,45,9.20
2009,09,25,06,46,9.20
2009,09,25,06,47,9.20
2009,09,25,06,48,9.20
2009,09,25,06,49,9.30
2009,09,25,06,50,9.30
2009,09,25,06,51,9.30
2009,09,25,06,52,9.30
2009,09,25,06,53,9.40
2009,09,25,06,54,9.40
2009,09,25,06,55,9.40
2009,09,25,06,56,9.50
2009,09,25,06,57,9.50
2009,09,25,06,58,9.60
2009,09,25,06,59,9.60
2009,09,25,07,00,9.60
2009,09,25,07,01,9.60
2009,09,25,07,02,9.60
2009,09,25,07,03,9.60
2009,09,25,07,04,9.60
2009,09,25,07,05,9.60
2009,09,25,07,06,9.60
2009,09,25,07,07,9.60
2009,09,25,07,08,9.70
2009,09,25,07,09,9.70
2009,09,25,07,10,9.70
2009,09,25,07,11,9.70
2009,09,25,07,12,9.70
2009,09,25,07,13,9.70
2009,09,25,07,14,9.70
2009,09,25,07,15,9.70
2009,09,25,07,16,9.60
2009,09,25,07,17,9.60
2009,09,25,07,18,9.60
2009,09,25,07,19,9.60
2009,09,25,07,20,9.60
2009,09,25,07,21,9.60
2009,09,25,07,22,9.50
2009,09,25,07,23,9.50
2009,09,25,07,24,9.40
2009,09,25,07,25,9.40
2009,09,25,07,26,9.40
2009,09,25,07,27,9.40
2009,09,25,07,28,9.40
2009,09,25,07,29,9.40
2009,09,25,07,30,9.40
2009,09,25,07,31,9.40
2009,09,25,07,32,9.40
2009,09,25,07,33,9.40
2009,09,25,07,34,9.50
2009,09,25,07,35,9.50
2009,09,25,07,36,9.50
2009,09,25,07,37,9.60
2009,09,25,07,38,9.60
2009,09,25,07,39,9.60
2009,09,25,07,40,9.60
2009,09,25,07,41,9.70
2009,09,25,07,42,9.70
2009,09,25,07,43,9.80
2009,09,25,07,44,9.80
2009,09,25,07,45,9.80
2009,09,25,07,46,9.90
2009,09,25,07,47,9.90
2009,09,25,07,48,10.00
2009,09,25,07,49,10.00
2009,09,25,07,50,10.00
2009,09,25,07,51,10.10
2009,09,25,07,52,10.10
2009,09,25,07,53,10.10
2009,09,25,07,54,10.20
2009,09,25,07,55,10.20
2009,09,25,07,56,10.20
2009,09,25,07,57,10.30
2009,09,25,07,58,10.30
2009,09,25,07,59,10.30
2009,09,25,08,00,10.30
2009,09,25,08,01,10.30
2009,09,25,08,02,10.30
2009,09,25,08,03,10.30
2009,09,25,08,04,10.40
2009,09,25,08,05,10.40
2009,09,25,08,06,10.50
2009,09,25,08,07,10.50
2009,09,25,08,08,10.60
2009,09,25,08,09,10.70
2009,09,25,08,10,10.70
2009,09,25,08,11,10.80
2009,09,25,08,12,10.80
2009,09,25,08,13,11.00
2009,09,25,08,14,11.10
2009,09,25,08,15,11.30
2009,09,25,08,16,11.40
2009,09,25,08,17,11.50
2009,09,25,08,18,11.60
2009,09,25,08,19,11.70
2009,09,25,08,20,11.80
2009,09,25,08,21,12.00
2009,09,25,08,22,12.10
2009,09,25,08,23,12.20
2009,09,25,08,24,12.30
2009,09,25,08,25,12.40
2009,09,25,08,26,12.50
2009,09,25,08,27,12.60
2009,09,25,08,28,12.70
2009,09,25,08,29,12.70
2009,09,25,08,30,12.70
2009,09,25,08,31,12.70
2009,09,25,08,32,12.60
2009,09,25,08,33,12.60
2009,09,25,08,34,12.60
2009,09,25,08,35,12.50
2009,09,25,08,36,12.50
2009,09,25,08,37,12.40
2009,09,25,08,38,12.40
2009,09,25,08,39,12.40
2009,09,25,08,40,12.40
2009,09,25,08,41,12.40
2009,09,25,08,42,12.40
2009,09,25,08,43,12.40
2009,09,25,08,44,12.40
2009,09,25,08,45,12.50
2009,09,25,08,46,12.60
2009,09,25,08,47,12.70
2009,09,25,08,48,12.70
2009,09,25,08,49,12.70
2009,09,25,08,50,12.80
2009,09,25,08,51,12.80
2009,09,25,08,52,12.80
2009,09,25,08,53,12.90
2009,09,25,08,54,12.90
2009,09,25,08,55,12.90
2009,09,25,08,56,13.00
2009,09,25,08,57,13.00
2009,09,25,08,58,13.10
2009,09,25,08,59,13.10
2009,09,25,09,00,13.20
2009,09,25,09,01,13.20
2009,09,25,09,02,13.30
2009,09,25,09,03,13.40
2009,09,25,09,04,13.50
2009,09,25,09,05,13.60
2009,09,25,09,06,13.70
2009,09,25,09,07,13.80
2009,09,25,09,08,13.90
2009,09,25,09,09,14.00
2009,09,25,09,10,14.10
2009,09,25,09,11,14.20
2009,09,25,09,12,14.30
2009,09,25,09,13,14.50
2009,09,25,09,14,14.60
2009,09,25,09,15,14.70
2009,09,25,09,16,14.70
2009,09,25,09,17,14.80
2009,09,25,09,18,14.80
2009,09,25,09,19,14.90
2009,09,25,09,20,15.00
2009,09,25,09,21,15.00
2009,09,25,09,22,15.00
2009,09,25,09,23,15.10
2009,09,25,09,24,15.20
2009,09,25,09,25,15.30
2009,09,25,09,26,15.30
2009,09,25,09,27,15.40
2009,09,25,09,28,15.40
2009,09,25,09,29,15.50
2009,09,25,09,30,15.60
2009,09,25,09,31,15.60
2009,09,25,09,32,15.70
2009,09,25,09,33,15.70
2009,09,25,09,34,15.70
2009,09,25,09,35,15.70
2009,09,25,09,36,15.70
2009,09,25,09,37,15.70
2009,09,25,09,38,15.80
2009,09,25,09,39,15.80
2009,09,25,09,40,15.80
2009,09,25,09,41,15.90
2009,09,25,09,42,15.90
2009,09,25,09,43,16.00
2009,09,25,09,44,16.10
2009,09,25,09,45,16.30
2009,09,25,09,46,16.40
2009,09,25,09,47,16.50
2009,09,25,09,48,16.60
2009,09,25,09,49,16.70
2009,09,25,09,50,16.80
2009,09,25,09,51,16.90
2009,09,25,09,52,16.90
2009,09,25,09,53,16.80
2009,09,25,09,54,16.80
2009,09,25,09,55,16.80
2009,09,25,09,56,16.80
2009,09,25,09,57,16.80
2009,09,25,09,58,16.80
2009,09,25,09,59,16.80
2009,09,25,10,00,16.80
2009,09,25,10,01,16.80
2009,09,25,10,02,16.80
2009,09,25,10,03,16.80
2009,09,25,10,04,16.80
2009,09,25,10,05,16.80
2009,09,25,10,06,16.80
2009,09,25,10,07,16.80
2009,09,25,10,08,16.80
2009,09,25,10,09,16.90
2009,09,25,10,10,16.90
2009,09,25,10,11,16.90
2009,09,25,10,12,16.90
2009,09,25,10,13,16.90
2009,09,25,10,14,16.90
2009,09,25,10,15,16.90
2009,09,25,10,16,16.90
2009,09,25,10,17,16.90
2009,09,25,10,18,16.90
2009,09,25,10,19,16.90
2009,09,25,10,20,16.90
2009,09,25,10,21,16.90
2009,09,25,10,22,17.00
2009,09,25,10,23,17.00
2009,09,25,10,24,17.10
2009,09,25,10,25,17.10
2009,09,25,10,26,17.20
2009,09,25,10,27,17.30
2009,09,25,10,28,17.40
2009,09,25,10,29,17.40
2009,09,25,10,30,17.50
2009,09,25,10,31,17.60
2009,09,25,10,32,17.60
2009,09,25,10,33,17.60
2009,09,25,10,34,17.50
2009,09,25,10,35,17.40
2009,09,25,10,36,17.40
2009,09,25,10,37,17.40
2009,09,25,10,38,17.40
2009,09,25,10,39,17.40
2009,09,25,10,40,17.40
2009,09,25,10,41,17.40
2009,09,25,10,42,17.30
2009,09,25,10,43,17.20
2009,09,25,10,44,17.00
2009,09,25,10,45,16.70
2009,09,25,10,46,16.60
2009,09,25,10,47,16.50
2009,09,25,10,48,16.40
2009,09,25,10,49,16.30
2009,09,25,10,50,16.30
2009,09,25,10,51,16.30
2009,09,25,10,52,16.30
2009,09,25,10,53,16.40
2009,09,25,10,54,16.40
2009,09,25,10,55,16.30
2009,09,25,10,56,16.30
2009,09,25,10,57,16.30
2009,09,25,10,58,16.30
2009,09,25,10,59,16.20
2009,09,25,11,00,16.20
2009,09,25,11,01,16.20
2009,09,25,11,02,16.20
2009,09,25,11,03,16.10
2009,09,25,11,04,16.00
2009,09,25,11,05,16.00
2009,09,25,11,06,15.90
2009,09,25,11,07,15.90
2009,09,25,11,08,15.90
2009,09,25,11,09,15.90
2009,09,25,11,10,15.90
2009,09,25,11,11,16.00
2009,09,25,11,12,16.10
2009,09,25,11,13,16.10
2009,09,25,11,14,16.00
2009,09,25,11,15,16.00
2009,09,25,11,16,16.00
2009,09,25,11,17,16.00
2009,09,25,11,18,16.10
2009,09,25,11,19,16.10
2009,09,25,11,20,16.10
2009,09,25,11,21,16.20
2009,09,25,11,22,16.20
2009,09,25,11,23,16.30
2009,09,25,11,24,16.40
2009,09,25,11,25,16.60
2009,09,25,11,26,16.70
2009,09,25,11,27,16.70
2009,09,25,11,28,16.80
2009,09,25,11,29,16.90
2009,09,25,11,30,17.00
2009,09,25,11,31,17.10
2009,09,25,11,32,17.10
2009,09,25,11,33,17.10
2009,09,25,11,34,17.10
2009,09,25,11,35,17.10
2009,09,25,11,36,17.10
2009,09,25,11,37,17.10
2009,09,25,11,38,17.00
2009,09,25,11,39,16.90
2009,09,25,11,40,16.90
2009,09,25,11,41,16.80
2009,09,25,11,42,16.80
2009,09,25,11,43,16.70
2009,09,25,11,44,16.80
2009,09,25,11,45,16.80
2009,09,25,11,46,16.80
2009,09,25,11,47,16.80
2009,09,25,11,48,16.90
2009,09,25,11,49,16.90
2009,09,25,11,50,16.90
2009,09,25,11,51,16.90
2009,09,25,11,52,16.80
2009,09,25,11,53,16.80
2009,09,25,11,54,16.80
2009,09,25,11,55,16.80
2009,09,25,11,56,16.80
2009,09,25,11,57,16.90
2009,09,25,11,58,16.90
2009,09,25,11,59,16.90
2009,09,25,12,00,17.00
2009,09,25,12,01,17.10
2009,09,25,12,02,17.20
2009,09,25,12,03,17.20
2009,09,25,12,04,17.30
2009,09,25,12,05,17.40
2009,09,25,12,06,17.40
2009,09,25,12,07,17.40
2009,09,25,12,08,17.30
2009,09,25,12,09,17.30
2009,09,25,12,10,17.40
2009,09,25,12,11,17.40
2009,09,25,12,12,17.40
2009,09,25,12,13,17.40
2009,09,25,12,14,17.40
2009,09,25,12,15,17.40
2009,09,25,12,16,17.40
2009,09,25,12,17,17.30
2009,09,25,12,18,17.30
2009,09,25,12,19,17.30
2009,09,25,12,20,17.30
2009,09,25,12,21,17.40
2009,09,25,12,22,17.40
2009,09,25,12,23,17.50
2009,09,25,12,24,17.50
2009,09,25,12,25,17.50
2009,09,25,12,26,17.50
2009,09,25,12,27,17.50
2009,09,25,12,28,17.50
2009,09,25,12,29,17.60
2009,09,25,12,30,17.60
2009,09,25,12,31,17.70
2009,09,25,12,32,17.70
2009,09,25,12,33,17.80
2009,09,25,12,34,17.80
2009,09,25,12,35,17.80
2009,09,25,12,36,17.80
2009,09,25,12,37,17.70
2009,09,25,12,38,17.70
2009,09,25,12,39,17.60
2009,09,25,12,40,17.60
2009,09,25,12,41,17.60
2009,09,25,12,42,17.60
2009,09,25,12,43,17.60
2009,09,25,12,44,17.60
2009,09,25,12,45,17.60
2009,09,25,12,46,17.70
2009,09,25,12,47,17.80
2009,09,25,12,48,17.90
2009,09,25,12,49,17.90
2009,09,25,12,50,17.90
2009,09,25,12,51,17.90
2009,09,25,12,52,17.90
2009,09,25,12,53,17.80
2009,09,25,12,54,17.80
2009,09,25,12,55,17.80
2009,09,25,12,56,17.80
2009,09,25,12,57,17.80
2009,09,25,12,58,17.80
2009,09,25,12,59,17.80
2009,09,25,13,00,17.80
2009,09,25,13,01,17.90
2009,09,25,13,02,17.90
2009,09,25,13,03,17.90
2009,09,25,13,04,17.90
2009,09,25,13,05,17.90
2009,09,25,13,06,17.90
2009,09,25,13,07,17.90
2009,09,25,13,08,18.00
2009,09,25,13,09,18.00
2009,09,25,13,10,18.10
2009,09,25,13,11,18.20
2009,09,25,13,12,18.20
2009,09,25,13,13,18.20
2009,09,25,13,14,18.20
2009,09,25,13,15,18.20
2009,09,25,13,16,18.20
2009,09,25,13,17,18.20
2009,09,25,13,18,18.20
2009,09,25,13,19,18.20
2009,09,25,13,20,18.20
2009,09,25,13,21,18.30
2009,09,25,13,22,18.30
2009,09,25,13,23,18.40
2009,09,25,13,24,18.40
2009,09,25,13,25,18.50
2009,09,25,13,26,18.60
2009,09,25,13,27,18.70
2009,09,25,13,28,18.80
2009,09,25,13,29,18.80
2009,09,25,13,30,18.70
2009,09,25,13,31,18.70
2009,09,25,13,32,18.60
2009,09,25,13,33,18.50
2009,09,25,13,34,18.40
2009,09,25,13,35,18.40
2009,09,25,13,36,18.40
2009,09,25,13,37,18.40
2009,09,25,13,38,18.40
2009,09,25,13,39,18.40
2009,09,25,13,40,18.40
2009,09,25,13,41,18.50
2009,09,25,13,42,18.50
2009,09,25,13,43,18.60
2009,09,25,13,44,18.60
2009,09,25,13,45,18.60
2009,09,25,13,46,18.50
2009,09,25,13,47,18.50
2009,09,25,13,48,18.50
2009,09,25,13,49,18.60
2009,09,25,13,50,18.60
2009,09,25,13,51,18.60
2009,09,25,13,52,18.60
2009,09,25,13,53,18.60
2009,09,25,13,54,18.60
2009,09,25,13,55,18.70
2009,09,25,13,56,18.70
2009,09,25,13,57,18.80
2009,09,25,13,58,18.80
2009,09,25,13,59,18.80
2009,09,25,14,00,18.80
2009,09,25,14,01,18.80
2009,09,25,14,02,18.80
2009,09,25,14,03,18.80
2009,09,25,14,04,18.80
2009,09,25,14,05,18.80
2009,09,25,14,06,18.80
2009,09,25,14,07,18.80
2009,09,25,14,08,18.80
2009,09,25,14,09,18.90
2009,09,25,14,10,18.90
2009,09,25,14,11,18.90
2009,09,25,14,12,18.90
2009,09,25,14,13,18.80
2009,09,25,14,14,18.80
2009,09,25,14,15,18.90
2009,09,25,14,16,18.90
2009,09,25,14,17,18.90
2009,09,25,14,18,19.00
2009,09,25,14,19,19.10
2009,09,25,14,20,19.10
2009,09,25,14,21,19.10
2009,09,25,14,22,19.10
2009,09,25,14,23,19.20
2009,09,25,14,24,19.20
2009,09,25,14,25,19.30
2009,09,25,14,26,19.30
2009,09,25,14,27,19.30
2009,09,25,14,28,19.40
2009,09,25,14,29,19.40
2009,09,25,14,30,19.40
2009,09,25,14,31,19.40
2009,09,25,14,32,19.40
2009,09,25,14,33,19.40
2009,09,25,14,34,19.40
2009,09,25,14,35,19.40
2009,09,25,14,36,19.40
2009,09,25,14,37,19.40
2009,09,25,14,38,19.40
2009,09,25,14,39,19.30
2009,09,25,14,40,19.30
2009,09,25,14,41,19.30
2009,09,25,14,42,19.30
2009,09,25,14,43,19.30
2009,09,25,14,44,19.30
2009,09,25,14,45,19.30
2009,09,25,14,46,19.30
2009,09,25,14,47,19.30
2009,09,25,14,48,19.30
2009,09,25,14,49,19.30
2009,09,25,14,50,19.30
2009,09,25,14,51,19.20
2009,09,25,14,52,19.20
2009,09,25,14,53,19.20
2009,09,25,14,54,19.10
2009,09,25,14,55,19.10
2009,09,25,14,56,19.10
2009,09,25,14,57,19.10
2009,09,25,14,58,19.10
2009,09,25,14,59,19.10
2009,09,25,15,00,19.10
2009,09,25,15,01,19.10
2009,09,25,15,02,19.10
2009,09,25,15,03,19.00
2009,09,25,15,04,19.00
2009,09,25,15,05,19.10
2009,09,25,15,06,19.10
2009,09,25,15,07,19.10
2009,09,25,15,08,19.10
2009,09,25,15,09,19.20
2009,09,25,15,10,19.20
2009,09,25,15,11,19.20
2009,09,25,15,12,19.10
2009,09,25,15,13,19.10
2009,09,25,15,14,19.10
2009,09,25,15,15,19.10
2009,09,25,15,16,19.00
2009,09,25,15,17,18.90
2009,09,25,15,18,18.90
2009,09,25,15,19,18.90
2009,09,25,15,20,18.80
2009,09,25,15,21,18.70
2009,09,25,15,22,18.70
2009,09,25,15,23,18.70
2009,09,25,15,24,18.70
2009,09,25,15,25,18.70
2009,09,25,15,26,18.70
2009,09,25,15,27,18.70
2009,09,25,15,28,18.70
2009,09,25,15,29,18.80
2009,09,25,15,30,18.80
2009,09,25,15,31,18.80
2009,09,25,15,32,18.80
2009,09,25,15,33,18.80
2009,09,25,15,34,18.80
2009,09,25,15,35,18.80
2009,09,25,15,36,18.80
2009,09,25,15,37,18.70
2009,09,25,15,38,18.70
2009,09,25,15,39,18.70
2009,09,25,15,40,18.70
2009,09,25,15,41,18.70
2009,09,25,15,42,18.70
2009,09,25,15,43,18.70
2009,09,25,15,44,18.70
2009,09,25,15,45,18.60
2009,09,25,15,46,18.60
2009,09,25,15,47,18.60
2009,09,25,15,48,18.60
2009,09,25,15,49,18.50
2009,09,25,15,50,18.50
2009,09,25,15,51,18.50
2009,09,25,15,52,18.50
2009,09,25,15,53,18.50
2009,09,25,15,54,18.50
2009,09,25,15,55,18.50
2009,09,25,15,56,18.60
2009,09,25,15,57,18.60
2009,09,25,15,58,18.60
2009,09,25,15,59,18.60
2009,09,25,16,00,18.60
2009,09,25,16,01,18.60
2009,09,25,16,02,18.60
2009,09,25,16,03,18.60
2009,09,25,16,04,18.60
2009,09,25,16,05,18.60
2009,09,25,16,06,18.60
2009,09,25,16,07,18.60
2009,09,25,16,08,18.60
2009,09,25,16,09,18.60
2009,09,25,16,10,18.60
2009,09,25,16,11,18.60
2009,09,25,16,12,18.70
2009,09,25,16,13,18.70
2009,09,25,16,14,18.70
2009,09,25,16,15,18.70
2009,09,25,16,16,18.70
2009,09,25,16,17,18.70
2009,09,25,16,18,18.70
2009,09,25,16,19,18.70
2009,09,25,16,20,18.70
2009,09,25,16,21,18.70
2009,09,25,16,22,18.70
2009,09,25,16,23,18.70
2009,09,25,16,24,18.70
2009,09,25,16,25,18.70
2009,09,25,16,26,18.70
2009,09,25,16,27,18.70
2009,09,25,16,28,18.60
2009,09,25,16,29,18.60
2009,09,25,16,30,18.70
2009,09,25,16,31,18.70
2009,09,25,16,32,18.70
2009,09,25,16,33,18.70
2009,09,25,16,34,18.70
2009,09,25,16,35,18.70
2009,09,25,16,36,18.70
2009,09,25,16,37,18.60
2009,09,25,16,38,18.60
2009,09,25,16,39,18.60
2009,09,25,16,40,18.50
2009,09,25,16,41,18.50
2009,09,25,16,42,18.50
2009,09,25,16,43,18.50
2009,09,25,16,44,18.50
2009,09,25,16,45,18.50
2009,09,25,16,46,18.40
2009,09,25,16,47,18.40
2009,09,25,16,48,18.40
2009,09,25,16,49,18.30
2009,09,25,16,50,18.30
2009,09,25,16,51,18.20
2009,09,25,16,52,18.20
2009,09,25,16,53,18.10
2009,09,25,16,54,18.00
2009,09,25,16,55,17.90
2009,09,25,16,56,17.80
2009,09,25,16,57,17.70
2009,09,25,16,58,17.60
2009,09,25,16,59,17.60
2009,09,25,17,00,17.60
2009,09,25,17,01,17.60
2009,09,25,17,02,17.50
2009,09,25,17,03,17.50
2009,09,25,17,04,17.50
2009,09,25,17,05,17.50
2009,09,25,17,06,17.50
2009,09,25,17,07,17.50
2009,09,25,17,08,17.60
2009,09,25,17,09,17.60
2009,09,25,17,10,17.60
2009,09,25,17,11,17.60
2009,09,25,17,12,17.70
2009,09,25,17,13,17.80
2009,09,25,17,14,17.80
2009,09,25,17,15,17.80
2009,09,25,17,16,17.90
2009,09,25,17,17,17.90
2009,09,25,17,18,17.90
2009,09,25,17,19,17.90
2009,09,25,17,20,17.90
2009,09,25,17,21,17.80
2009,09,25,17,22,17.80
2009,09,25,17,23,17.70
2009,09,25,17,24,17.60
2009,09,25,17,25,17.60
2009,09,25,17,26,17.50
2009,09,25,17,27,17.50
2009,09,25,17,28,17.40
2009,09,25,17,29,17.30
2009,09,25,17,30,17.30
2009,09,25,17,31,17.30